Regional Weather Roundup
Issued by NWS

Home | Current Version | Previous Version | Graphics & Text | Print | Product List | Glossary On
Versions: 1 2 3 4 5 6 7 8 9 10 11 12 13 14 15 16 17 18 19 20 21 22 23 24 25 26 27 28 29 30 31 32 33 34 35 36 37 38 39 40 41 42 43 44 45 46 47 48 49 50
464
ASUS45 KSLC 220310
RWRUT

UTAH REGIONAL WEATHER ROUNDUP
NATIONAL WEATHER SERVICE SALT LAKE CITY UT
900 PM MDT SUN MAY 21 2017

UTZ001>011-023>025-220400-

NORTHERN UTAH

CITY           SKY/WX    TMP DP  RH WIND       PRES   REMARKS
BRIGHAM CITY   CLEAR     61  50  66 SE3       30.19S
HILL AFB       PTCLDY    56  46  69 W5        30.21R
LOGAN          CLEAR     60  43  53 CALM      30.19R
OGDEN          CLEAR     57  46  66 W6        30.19S
SALT LAKE CITY PTCLDY    59  47  64 W8        30.20R
TOOELE VALLEY  CLEAR     55  46  71 CALM      30.22R
WENDOVER       CLEAR     65  41  41 E8        30.20R
HEBER CITY     PTCLDY    48  45  87 N3        30.25R
WEST JORDAN    CLEAR     58  52  81 NW6       30.22R

$$

UTZ011>015-024>027-220400-

CENTRAL/NORTHEAST UTAH

CITY           SKY/WX    TMP DP  RH WIND       PRES   REMARKS
PROVO AIRPORT  PTCLDY    57  41  54 VRB6      30.21R
MOAB/CANYONLAN MOCLDY    55  47  74 W6        30.14S
DELTA          CLEAR     59  37  44 N13       30.18R
PRICE          CLEAR     51  42  71 SW3       30.22R
ROOSEVELT      PTCLDY    55  37  50 N5        30.23R
VERNAL         CLOUDY    54  40  59 N13       30.22R

$$

UTZ013>016-019>022-027-220400-

SOUTHERN UTAH

CITY           SKY/WX    TMP DP  RH WIND       PRES   REMARKS
BRYCE CANYON   PTCLDY    52  32  46 NW9       30.27R
CEDAR CITY     PTCLDY    58  37  45 CALM      30.17R
MILFORD        CLEAR     63  36  36 N12       30.15R
ST GEORGE      PTCLDY    78  39  24 NE16      29.98R
HANKSVILLE     CLEAR     59  37  44 NE9       30.18R
BLANDING       MOCLDY    58  33  39 NW9       30.25R

$$

REGIONAL REPORTS     COLORADO/ARIZONA

CITY           SKY/WX    TMP DP  RH WIND       PRES   REMARKS
CRAIG, CO      CLOUDY    50  38  63 SE5       30.25R
GRAND JUNCTION CLOUDY    59  40  49 NW5       30.17R
RIFLE, CO      LGT RAIN  57  38  48 NW6       30.20R
MONTROSE, CO   CLOUDY    58  36  43 W9        30.23R
CORTEZ, CO     CLOUDY    55  38  52 E6        30.20R
COLORADO CITY    N/A     72  34  25 W3        30.13S
PAGE, AZ       MOCLDY    74  33  22 N5        30.08R
GRAND CANYON   PTCLDY    53  29  39 CALM      30.21R
KINGMAN, AZ    CLEAR     78  23  13 N7        29.97R
FLAGSTAFF, AZ  PTCLDY    57  25  29 CALM      30.21R

$$

REGIONAL REPORTS    NEVADA/IDAHO/WYOMING

CITY           SKY/WX    TMP DP  RH WIND       PRES   REMARKS
LAS VEGAS, NV  MOCLDY    92  17   6 W9        29.86R
ELY, NY        CLEAR     60  34  37 N12       30.22R
ELKO, NV       CLEAR     64  37  36 E6        30.20R
POCATELLO, ID  PTCLDY    62  36  37 E3        30.19R
BURLEY, ID     CLEAR     62  46  55 W7        30.18R
FORT BRIDGER,  CLOUDY    51  38  60 SE7       30.31R
EVANSTON, WY   CLOUDY    49  37  63 NW9       30.28R
ROCK SPRINGS,  LGT RAIN  45  39  79 NE8       30.29S
KEMMERER, WY     N/A     46  32  57 N7        30.30R

$$




USA.gov is the U.S. government's official web portal to all federal, state and local government web resources and services.